Meteo Giornale » Osservazioni meteo Stati Uniti (USA) » Los Angeles

ore: 19:53 - Osservazioni Meteo Los Angeles
Lat. 33° 56' N Lon. 118° 23' W Alt. 38 metri s.l.m.

molto_nuvoloso America/Los_Angeles

18 °C

Molto Nuvoloso

Temp. 24 Ore

17 °C

23 °C

Ovest

16.7 Km/h

Dew point 16 °C

Umidità 88 %

Visibilità  10 Km

Il sole sorge alle ore 05:42

Il sole tramonta alle ore 20:09

Data e Ora Cielo e Fenomeni T °C DP °C Um. % Pres. hPa Vis. km Vento km/h
Oggi h: 19:53 molto_nuvoloso Molto Nuvoloso 18 16 88 1010 10 O 16.7
Oggi h: 18:53 poco_nuvoloso Poco Nuvoloso 19 16 82 1009 10 O 16.7
Oggi h: 17:53 poco_nuvoloso Poco Nuvoloso 20 16 77 1009 10 O 18.5
Oggi h: 16:53 poco_nuvoloso Poco Nuvoloso 21 16 73 1009 10 O 18.5
Oggi h: 15:53 poco_nuvoloso Poco Nuvoloso 22 16 68 1009 10 SO 14.8
Oggi h: 14:53 poco_nuvoloso Poco Nuvoloso 22 16 68 1010 10 O 20.3
Oggi h: 13:53 sereno Sereno 23 16 64 1010 10 O/SO 16.7
Oggi h: 11:53 poco_nuvoloso Poco Nuvoloso 22 16 68 1010 13 S 11.1
Oggi h: 10:53 foschia Foschia 20 16 77 1010 10 E/SE 14.8
Oggi h: 10:20 foschia Foschia 19 16 82 1010 6 S/SE 9.3
Oggi h: 09:53 foschia Foschia 19 17 88 1010 6 N 9.3
Oggi h: 08:53 foschia Foschia 18 17 93 1009 5 E/SE 7.4
Oggi h: 07:53 foschia Foschia 18 17 93 1009 5 E/SE 9.3
Oggi h: 06:53 foschia Foschia 18 17 93 1008 5 S/SE 9.3
Oggi h: 05:53 foschia Foschia 18 17 93 1007 2 N 0
Oggi h: 05:44 foschia Foschia 18 17 93 1007 2 N 0
Oggi h: 04:53 foschia Foschia 18 16 88 1007 8 N 0
Oggi h: 03:53 molto_nuvoloso Molto Nuvoloso 17 17 100 1007 10 N 5.5
Oggi h: 02:53 molto_nuvoloso Molto Nuvoloso 18 17 93 1007 14 N 5.5
Oggi h: 02:50 molto_nuvoloso Molto Nuvoloso 18 17 93 1007 14 O/SO 7.4
Oggi h: 01:53 poco_nuvoloso Poco Nuvoloso 18 16 88 1007 10 O/SO 9.3
Oggi h: 00:53 poco_nuvoloso Poco Nuvoloso 18 17 93 1007 10 S/SO 9.3
Ieri h: 23:53 poco_nuvoloso Poco Nuvoloso 18 17 93 1007 10 S/SO 7.4
Ieri h: 22:53 poco_nuvoloso Poco Nuvoloso 18 17 93 1007 10 O 9.3
Ieri h: 22:10 poco_nuvoloso Poco Nuvoloso 18 17 93 1007 10 O/SO 11.1
Ieri h: 21:53 sereno Sereno 18 17 93 1007 10 O/SO 11.1
Ieri h: 20:53 sereno Sereno 18 17 93 1006 10 O 13